UPSat
1 42716U 98067LX 18179.52846302 .00041430 00000-0 25174-3 0 9990
2 42716 051.6330 292.1554 0003922 303.7710 056.2916 15.77054668063563
SpaceCube
1 42717U 98067LY 18179.55124828 .00026858 00000-0 20930-3 0 9998
2 42717 051.6335 297.5948 0003265 297.4548 062.6117 15.71500324062734
Hoopoe
1 42718U 98067LZ 18179.50045148 .00033345 00000-0 22866-3 0 9990
2 42718 051.6352 295.0064 0003476 300.2969 059.7686 15.74390235062762
Challenger
1 42721U 98067MA 18179.54940123 .00137375 18069-4 43683-3 0 9991
2 42721 051.6272 283.0985 0008225 317.0280 043.0082 15.90870289062626
NJUST-1
1 42722U 98067MB 18179.54705739 .00016909 00000-0 15824-3 0 9991
2 42722 051.6364 302.8757 0005227 276.7510 083.2891 15.67365189062369
UNSW-EC0
1 42723U 98067MC 18179.49563825 .00035026 00000-0 23145-3 0 9990
2 42723 051.6383 295.0115 0005074 286.7528 073.2915 15.75214352062441
DUTHsat
1 42724U 98067MD 18179.46875218 .00124361 00000-0 45033-3 0 9991
2 42724 051.6313 285.6529 0007130 314.0475 045.9942 15.87664683062502
LO-90
1 42725U 98067ME 18179.57054826 .00022971 00000-0 19141-3 0 9993
2 42725 051.6366 300.0209 0004443 281.1759 078.8739 15.69983986062320
nSIGHT1
1 42726U 98067MF 18179.57652369 .00007152 00000-0 87159-4 0 9999
2 42726 051.6396 309.8908 0004808 276.3024 083.7422 15.61711099062187
SNUSAT 1B
1 42727U 98067MG 18179.51881505 .00022571 00000-0 18848-3 0 9990
2 42727 051.6345 300.3702 0005681 245.9946 114.0457 15.69937713062261
QBITO
1 42728U 98067MH 18179.57417734 .00027314 00000-0 20997-3 0 9994
2 42728 051.6386 297.8434 0002864 288.9113 071.1574 15.71816167062144
Aalto-2
1 42729U 98067MJ 18179.55134012 .00028701 00000-0 21778-3 0 9997
2 42729 051.6352 297.6266 0002930 288.7672 071.3008 15.72096235062153
SUSat
1 42730U 98067MK 18179.55445539 .00024906 00000-0 20277-3 0 9994
2 42730 051.6356 299.1467 0002867 285.7619 074.3062 15.70497802062130
i-INSPIRE II
1 42731U 98067ML 18179.48434193 .00040983 00000-0 26310-3 0 9998
2 42731 051.6358 294.1041 0004635 249.5508 110.4995 15.75803927062238
PolyITAN-2-SAU
1 42732U 98067MM 18179.57799599 .00029569 00000-0 22223-3 0 9999
2 42732 051.6348 297.0219 0004871 238.6991 121.3531 15.72298825062200
ExAlta-1
1 42734U 98067MP 18179.52523649 .00042628 00000-0 26395-3 0 9992
2 42734 051.6294 293.5904 0006173 274.1394 085.8900 15.76599211062192
Aoxiang-1
1 42735U 98067MQ 18179.57371520 .00017648 00000-0 16273-3 0 9995
2 42735 051.6357 302.2791 0005652 274.4291 085.6060 15.67694619063504
BeEagleSat
1 42736U 98067MR 18179.49215625 .00020946 00000-0 18051-3 0 9991
2 42736 051.6354 300.9704 0005495 275.4353 084.6017 15.69224746062205
CAS-4B
1 42759U 17034B 18179.57482372 .00000274 00000-0 30447-4 0 9991
2 42759 043.0208 020.7489 0008751 184.4162 206.9617 15.09312632057176
CAS-4A
1 42761U 17034D 18179.62555334 .00000419 00000-0 39313-4 0 9991
2 42761 043.0207 020.2361 0009156 185.7127 224.2296 15.09389931057179
UCLSat
1 42765U 17036A 18179.12370551 .00001698 00000-0 77554-4 0 9997
2 42765 097.4000 238.7961 0012976 044.8109 315.4172 15.21886101056965
NIUSat
1 42766U 17036B 18179.38788182 .00001239 00000-0 59794-4 0 9996
2 42766 097.4001 238.3077 0016762 030.6616 329.5595 15.20422487056231
LituanicaSAT 2
1 42768U 17036D 18179.57898387 .00002346 00000-0 10724-3 0 9997
2 42768 097.4015 238.8388 0016497 032.6857 327.5396 15.21429014056299
Aalto 1
1 42775U 17036L 18179.61362663 .00000898 00000-0 43796-4 0 9999
2 42775 097.3994 238.7470 0015007 030.9705 329.2412 15.20773375056235
URSA MAIOR
1 42776U 17036M 18179.59961056 .00001015 00000-0 48986-4 0 9996
2 42776 097.4001 238.7865 0014854 031.2689 328.9427 15.20853578056234
Max Valier Sat
1 42778U 17036P 18179.23077296 .00001307 00000-0 61346-4 0 9992
2 42778 097.4026 238.7603 0013620 038.0595 322.1600 15.21339531056186
Pegasus
1 42784U 17036V 18179.22827385 .00001484 00000-0 68505-4 0 9990
2 42784 097.4004 238.8225 0013474 044.2267 316.0044 15.21694237056194
NUDATSat
1 42787U 17036Y 18179.60249277 .00001933 00000-0 86827-4 0 9999
2 42787 097.4010 239.4026 0012958 043.2951 316.9301 15.22284252056104
SUCHAI 1
1 42788U 17036Z 18179.11782319 .00001895 00000-0 85960-4 0 9999
2 42788 097.4006 238.8166 0013100 044.6560 315.5729 15.21968420056259
SKCUBE
1 42789U 17036AA 18179.11751709 .00001729 00000-0 78785-4 0 9992
2 42789 097.4003 238.8100 0012933 044.7025 315.5251 15.21928310056170
VZLUSAT 1
1 42790U 17036AB 18179.59164397 .00001885 00000-0 84733-4 0 9990
2 42790 097.4007 239.3996 0012544 043.8687 316.3543 15.22304853056250
VENTA 1
1 42791U 17036AC 18179.23017452 .00001537 00000-0 70311-4 0 9992
2 42791 097.4002 238.9614 0012569 045.1510 315.0745 15.21977856056185
Robusta 1B
1 42792U 17036AD 18179.61110382 .00001561 00000-0 71144-4 0 9993
2 42792 097.4002 239.3603 0012504 044.3179 315.9056 15.22072105056267
D-SAT
1 42794U 17036AF 18179.58750481 .00000117 00000-0 15943-4 0 9992
2 42794 097.5905 233.8144 0125639 244.0070 114.8164 14.90878388055428
BIRD-J
1 42820U 98067MU 18179.50521996 .00021463 00000-0 19177-3 0 9993
2 42820 051.6354 303.3172 0002455 217.6505 142.4321 15.68332919055658
BIRD-G
1 42821U 98067MV 18179.49738188 .00019816 00000-0 18155-3 0 9999
2 42821 051.6355 304.0176 0002473 218.9032 141.1787 15.67772176055622
BIRD-M
1 42822U 98067MW 18179.60458513 .00020496 00000-0 18555-3 0 9994
2 42822 051.6357 303.2374 0002475 223.7257 136.3544 15.68042733055640
BIRD-B
1 42823U 98067MX 18179.53616631 .00020575 00000-0 18545-3 0 9991
2 42823 051.6361 303.5483 0004838 238.7025 121.3498 15.68140422055639
BIRD-N
1 42824U 98067MY 18179.49811697 .00020314 00000-0 18480-3 0 9995
2 42824 051.6368 304.0615 0004738 238.5853 121.4681 15.67921202055622
TechnoSat
1 42829U 17042E 18179.30428385 .00000086 00000-0 14169-4 0 9997
2 42829 97.5960 81.2391 0014764 156.8055 203.3833 14.90830626 51983
TOMSK-TPU 120
1 42910U 98067MZ 18179.56703948 .00014935 00000-0 15624-3 0 9997
2 42910 051.6357 308.2289 0005670 254.5875 105.4494 15.64671948049169
TANYUSHA 1
1 42911U 98067NA 18179.54299848 .00016023 00000-0 16031-3 0 9998
2 42911 051.6363 307.3552 0005284 250.6825 109.3600 15.65738624049150
TANYUSHA 2
1 42912U 98067NB 18179.54960471 .00015662 00000-0 16056-3 0 9991
2 42912 051.6377 308.1259 0004757 261.8255 098.2201 15.65147055049160
SFERA 2
1 42913U 98067NC 18179.55694051 .00039856 00000-0 28079-3 0 9990
2 42913 051.6330 299.8585 0004439 283.7148 076.3357 15.73667353049277
TNS 0-2
1 42914U 98067ND 18179.54997128 .00014949 00000-0 15760-3 0 9990
2 42914 051.6369 308.9072 0004757 255.5439 104.5029 15.64477594049126
QIKCOM-1
1 42983U 98067NF 18179.57318111 .00003420 00000-0 54479-4 0 9991
2 42983 051.6406 319.6177 0003839 236.7373 123.3251 15.56339390037997
AO-91
1 43017U 17073E 18179.45040404 .00000336 00000-0 32427-4 0 9994
2 43017 097.7077 110.1132 0258443 234.7953 122.8815 14.78095857032772
EcAMSat
1 43019U 98067NG 18179.57833748 .00004851 00000-0 72091-4 0 9999
2 43019 051.6408 318.9047 0004795 211.6383 148.4321 15.57206427120324
PICSAT
1 43132U 18004X 18179.60999053 .00001422 00000-0 64073-4 0 9996
2 43132 097.5332 242.3201 0011483 063.6758 296.5657 15.22679454025451
AO-92
1 43137U 18004AC 18179.59799123 .00001191 00000-0 54092-4 0 9998
2 43137 097.5328 242.3303 0011036 065.5539 294.6847 15.22741071025451
TianYi 2
1 43155U 18008A 18179.55784396 .00001373 00000-0 86691-4 0 9996
2 43155 097.5236 253.8396 0019513 104.7040 002.2213 15.10585206024204
